Regional Weather Roundup
Issued by NWS

Home | Current Version | Previous Version | Text Only | Print | Product List | Glossary Off
Versions: 1 2 3 4 5 6 7 8 9 10 11 12 13 14 15 16 17 18 19 20 21 22 23 24 25 26 27 28 29 30 31 32 33 34 35 36 37 38 39 40 41 42 43 44 45 46 47 48 49 50

000
ASUS45 KSLC 270610
RWRUT

UTAH REGIONAL WEATHER ROUNDUP
NATIONAL WEATHER SERVICE SALT LAKE CITY UT
1200 AM MDT WED MAY 27 2015

UTZ001>011-023>025-270700-

NORTHERN UTAH

CITY           SKY/WX    TMP DP  RH WIND       PRES   REMARKS
BRIGHAM CITY   CLOUDY    54  48  80 SE3       30.05F
HILL AFB       CLOUDY    55  49  81 S9        30.07F
LOGAN          CLEAR     47  46  97 CALM      30.06S
OGDEN          CLOUDY    53  49  86 SE7       30.05F
PROVO AIRPORT  MOCLDY    52  46  82 SE8       30.11S
SALT LAKE CITY MOCLDY    56  49  77 S6        30.07R
VERNAL         CLOUDY    51  48  89 CALM      30.11S
WENDOVER       PTCLDY    55  50  82 SW6       30.07F
HEBER CITY     PTCLDY    45  41  87 E3        30.13R

$$

UTZ012>022-026-027-270700-

SOUTHERN/CENTRAL UTAH

CITY           SKY/WX    TMP DP  RH WIND       PRES   REMARKS
BLANDING       PTCLDY    53  44  72 N9        30.18S
BRYCE CANYON   PTCLDY    42  39  89 NW9       30.22F
CEDAR CITY     CLOUDY    54  42  64 SE10      30.09F
DELTA          PTCLDY    51  44  77 SE5       30.10S
HANKSVILLE     CLOUDY    61  43  51 SE3       30.10R
MILFORD        PTCLDY    53  45  74 W5        30.07F
MOAB/CYNLANDS  MOCLDY    59  46  62 E8        30.07R
PRICE          MOCLDY    50  38  63 CALM      30.13R
ST GEORGE      PTCLDY    72  39  30 E8        29.97S

$$

REGIONAL REPORTS     COLORADO/ARIZONA

CITY           SKY/WX    TMP DP  RH WIND       PRES   REMARKS
CRAIG, CO      CLOUDY    49  44  83 SW5       30.14R
GRAND JUNCTION MOCLDY    54  48  80 CALM      30.10S
RIFLE          CLOUDY    51  47  86 S3        30.14F
MONTROSE       CLEAR     48  46  93 E6        30.16S
CORTEZ         CLEAR     48  43  82 CALM      30.13F
PAGE, AZ       PTCLDY    67  44  43 NW6       30.03R
GRAND CANYON   PTCLDY    45  37  73 CALM      30.18F
KINGMAN        PTCLDY    65  25  22 S12       29.99F
FLAGSTAFF      PTCLDY    45  33  63 W5        30.21F

$$

REGIONAL REPORTS    NEVADA/IDAHO/WYOMING

CITY           SKY/WX    TMP DP  RH WIND       PRES   REMARKS
LAS VEGAS, NV  CLOUDY    82  33  17 S15       29.83S
ELY            LGT RAIN  54  44  69 E10       30.11S
ELKO           MOCLDY    54  44  69 CALM      30.02S
POCATELLO, ID  CLEAR     51  46  83 E10       30.04F
BURLEY         PTCLDY    56  42  59 SE10      29.99S
EVANSTON, WY   PTCLDY    42  39  89 SW9       30.14S
ROCK SPRINGS   MOCLDY    47  42  83 SW6       30.12S
KEMMERER       CLOUDY    41  41 100 W3        30.15R

$$



USA.gov is the U.S. government's official web portal to all federal, state and local government web resources and services.